Location: Bon Acre
(42.6442°N, 73.5758°W)
Time: 14:15:35
(UTC+00:00)

ARIANE 6 FM1 Upper Stage - Pass Details

Date: 23 February 2026
Orbit: 523 x 607 km, 62.0° (Epoch: 6 March)

Event Time Altitude Azimuth Distance (km) Brightness Sun altitude
Rises 00:04:44 0° 300° (WNW) 2,656 7.2 -17.2°
Reaches altitude 10° 00:08:30 10° 263° (W) 1,769 6.4 -17.8°
Maximum altitude 00:09:33 11° 247° (WSW) 1,713 6.1 -18.0°
Drops below altitude 10° 00:10:37 10° 232° (SW) 1,772 5.9 -18.2°
Sets 00:14:24 0° 195° (SSW) 2,672 6.3 -18.9°
